Location: Asheville, NC
(35.6000°N, 82.5500°W)
Time: 06:59:05
(UTC-05:00)

KAITUO 1B - Pass Details

Date: 16 February 2018
Orbit: 498 x 522 km, 97.5° (Epoch: 19 February)

Event Time Altitude Azimuth Distance (km) Brightness Sun altitude
Rises 05:43:23 0° 37° (NE) 2,602 ? -19.4°
Reaches altitude 10° 05:46:38 10° 68° (ENE) 1,717 ? -18.8°
Maximum altitude 05:48:10 12° 93° (E) 1,582 ? -18.4°
Drops below altitude 10° 05:49:42 10° 118° (ESE) 1,717 ? -18.1°
Sets 05:52:56 0° 149° (SSE) 2,602 ? -17.5°
